Penn Yan, NY

9:02 PM EDT on August 19, 2017 (GMT -0400)
Penn Yan

Weather History for KPEO - February, 2014

Change the Weather History Date:

Friday, February 7, 2014

  Actual Average (KITH) Record (KITH)
Temperature  
Mean Temperature 15 °F -  
Max Temperature 24 °F 27 °F 50 °F (2002)
Min Temperature 6 °F 10 °F -14 °F (1988)
Degree Days  
Heating Degree Days 50    
Moisture  
Dew Point 1 °F    
Average Humidity 57    
Maximum Humidity 81    
Minimum Humidity 35    
Precipitation  
Precipitation 0.00 in - - ()
Sea Level Pressure  
Sea Level Pressure 30.25 in    
Wind  
Wind Speed 6 mph (WSW)    
Max Wind Speed 14 mph    
Max Gust Speed 23 mph    
Visibility 10 miles    
Events Snow    
Averages and records for this station are not official NWS values.
T = Trace of Precipitation, MM = Missing Value Source: NWS Daily Summary

Daily Weather History Graph

Daily Weather History Graph

Search for Another Location

Airport or City:

Trip Planner

Search our weather history database for the weather conditions in past years. The results will help you decide how hot, cold, wet, or windy it might be!

Date:

Astronomy

Feb. 07, 2014 Rise Set
Actual Time 7:15 AM EST 5:29 PM EST
Civil Twilight 6:46 AM EST 5:59 PM EST
Nautical Twilight 6:12 AM EST 6:32 PM EST
Astronomical Twilight 5:39 AM EST 7:05 PM EST
Moon 11:38 AM EST (2/7) 1:30 AM EST (2/7)
Length of Visible Light 11h 13m
Length of Day
10h 14m
First Quarter, 59% of the Moon is Illuminated
Feb 7
First Quarter
Feb 14
Full
Feb 22
Last Quarter
Mar 1
New
Mar 8
First Quarter

Hourly Weather History & Observations

Time (EST) Temp. Windchill Dew Point Humidity Pressure Visibility Wind Dir Wind Speed Gust Speed Precip Events Conditions
12:53 AM 10.9 °F 4.7 °F 6.1 °F 81% 30.22 in 7.0 mi South 3.5 mph - 0.00 in Snow Light Snow
1:53 AM 12.9 °F 5.2 °F 8.1 °F 81% 30.21 in 10.0 mi SSW 4.6 mph - 0.00 in   Overcast
2:53 AM 12.9 °F 6.9 °F 8.1 °F 81% 30.22 in 6.0 mi NNW 3.5 mph - 0.00 in Snow Light Snow
3:02 AM 12.9 °F 6.9 °F 8.1 °F 81% 30.16 in 6.0 mi NW 3.5 mph - 0.00 in Snow Light Snow
3:39 AM 14.0 °F 8.2 °F 8.1 °F 77% 30.17 in 10.0 mi West 3.5 mph - 0.00 in   Overcast
3:53 AM 14.0 °F -0.8 °F 6.1 °F 71% 30.23 in 10.0 mi West 13.8 mph 19.6 mph 0.00 in   Mostly Cloudy
4:00 AM 15.1 °F 0.5 °F 5.0 °F 64% 30.17 in 10.0 mi West 13.8 mph 23.0 mph N/A   Scattered Clouds
4:53 AM 12.0 °F -2.0 °F 3.0 °F 67% 30.25 in 10.0 mi West 11.5 mph - N/A   Clear
5:53 AM 9.0 °F 2.4 °F 1.0 °F 70% 30.28 in 10.0 mi Variable 3.5 mph - N/A   Clear
6:53 AM 6.1 °F - -0.9 °F 73% 30.30 in 10.0 mi Calm Calm - N/A   Clear
7:53 AM 6.1 °F - -0.9 °F 73% 30.31 in 10.0 mi Calm Calm - N/A   Clear
8:53 AM 9.0 °F -3.2 °F -0.0 °F 67% 30.31 in 10.0 mi SW 8.1 mph - N/A   Clear
9:53 AM 12.0 °F -2.0 °F 1.0 °F 61% 30.31 in 10.0 mi SW 11.5 mph - N/A   Scattered Clouds
10:53 AM 15.1 °F 3.3 °F -0.0 °F 51% 30.29 in 10.0 mi SSW 9.2 mph - N/A   Clear
11:53 AM 18.0 °F 5.4 °F 1.0 °F 48% 30.27 in 10.0 mi SW 11.5 mph - N/A   Clear
12:53 PM 19.9 °F 12.1 °F -0.0 °F 42% 30.24 in 10.0 mi SW 5.8 mph - N/A   Scattered Clouds
1:53 PM 23.0 °F 11.1 °F -0.9 °F 35% 30.21 in 10.0 mi WSW 12.7 mph - N/A   Partly Cloudy
2:53 PM 24.1 °F 14.4 °F -0.0 °F 35% 30.21 in 10.0 mi WSW 9.2 mph - N/A   Mostly Cloudy
3:53 PM 23.0 °F 14.7 °F -0.0 °F 37% 30.21 in 10.0 mi WSW 6.9 mph - N/A   Overcast
4:53 PM 21.9 °F 9.2 °F -0.0 °F 38% 30.23 in 10.0 mi West 13.8 mph - N/A   Overcast
5:53 PM 17.1 °F 8.7 °F -0.9 °F 45% 30.26 in 10.0 mi West 5.8 mph - N/A   Clear
6:53 PM 16.0 °F 4.4 °F -2.9 °F 43% 30.29 in 10.0 mi West 9.2 mph - N/A   Clear
7:53 PM 15.1 °F 9.4 °F -4.0 °F 43% 30.29 in 10.0 mi Variable 3.5 mph - N/A   Clear
8:53 PM 14.0 °F 2.0 °F -5.1 °F 43% 30.28 in 10.0 mi SW 9.2 mph - N/A   Clear
9:53 PM 12.9 °F 1.6 °F -5.1 °F 45% 30.29 in 10.0 mi WSW 8.1 mph - N/A   Clear
10:53 PM 10.0 °F -1.9 °F -6.0 °F 48% 30.29 in 10.0 mi WSW 8.1 mph - N/A   Clear
11:53 PM 10.0 °F 1.8 °F -6.0 °F 48% 30.30 in 10.0 mi SW 4.6 mph - N/A   Clear